Location: Sihaung
(22.8641°N, 94.0549°E)
Time: 13:54:40
(UTC+00:00)

Delta 7925 Rocket - Pass Details

Date: 03 March 2021
Orbit: 645 x 1648 km, 26.3° (Epoch: 10 April)

Event Time Altitude Azimuth Distance (km) Brightness Sun altitude
Rises 12:21:01 0° 271° (W) 3,142 9.1 -8.4°
Reaches altitude 10° 12:23:36 10° 275° (W) 2,135 7.4 -9.0°
Maximum altitude 12:28:22 58° 355° (N) 749 3.5 -10.1°
Enters shadow 12:32:14 14° 73° (ENE) 1,774 4.8 -11.0°
